Location: Newark
(41.7772°N, 74.7403°W)
Time: 05:25:12
(UTC+00:00)

Vanguard 2 - All Passes

Search period start: 06 June 2020 00:00
Search period end: 16 June 2020 00:00
Orbit: 552 x 2938 km, 32.9° (Epoch: 05 June)

Date Brightness Start Highest point End Pass type
(mag) Time Alt. Az. Time Alt. Az. Time Alt. Az.
06 Jun - 01:34:49 10° W 01:45:49 44° SSW 01:52:35 10° SE visible
06 Jun - 03:48:18 10° WSW 03:53:24 18° SW 03:57:20 10° S visible
06 Jun - 19:19:56 10° SSW 19:32:54 26° SSE 19:43:59 10° E daylight
06 Jun - 21:28:00 10° SW 21:43:41 46° SSE 21:54:46 10° E daylight
06 Jun - 23:39:53 10° WSW 23:54:13 55° S 00:03:07 10° ESE daylight
07 Jun - 01:52:55 10° W 02:03:24 39° SSW 02:10:00 10° SE visible
07 Jun - 04:07:46 10° WSW 04:10:36 12° SW 04:13:04 10° SSW visible
07 Jun - 17:35:53 10° SSE 17:40:21 11° SE 17:44:43 10° ESE daylight
07 Jun - 19:36:04 10° SSW 19:50:33 32° SSE 20:02:39 10° E daylight
07 Jun - 21:45:25 10° SW 22:01:31 51° SSE 22:12:41 10° E daylight
07 Jun - 23:57:49 10° WSW 00:12:01 55° S 00:20:49 10° ESE daylight
08 Jun - 02:11:07 10° W 02:20:53 33° SSW 02:27:14 10° SSE visible
08 Jun - 17:48:13 10° S 17:57:47 17° SE 18:06:59 10° ESE daylight
08 Jun - 19:52:41 10° SSW 20:08:15 39° SSE 20:20:58 10° E daylight
08 Jun - 22:03:02 10° WSW 22:19:22 55° S 22:30:33 10° E daylight
09 Jun - 00:15:50 10° W 00:29:46 52° SSW 00:38:25 10° ESE daylight
09 Jun - 02:29:28 10° W 02:38:15 27° SW 02:44:15 10° SSE visible
09 Jun - 18:03:06 10° S 18:15:15 23° SE 18:26:48 10° E daylight
09 Jun - 20:09:41 10° SW 20:25:59 45° SSE 20:39:06 10° E daylight
09 Jun - 22:20:48 10° WSW 22:37:14 58° S 22:48:20 10° ESE daylight
10 Jun - 00:33:54 10° W 00:47:27 48° SSW 00:55:56 10° SE daylight
10 Jun - 02:48:06 10° W 02:55:31 21° SW 03:00:54 10° S visible
10 Jun - 18:18:56 10° SSW 18:32:44 30° SE 18:45:46 10° E daylight
10 Jun - 20:26:57 10° SW 20:43:46 51° SSE 20:57:06 10° E daylight
10 Jun - 22:38:41 10° WSW 22:55:05 59° S 23:06:04 10° ESE daylight
11 Jun - 00:52:02 10° W 01:05:02 43° SSW 01:13:19 10° SE visible
11 Jun - 03:07:19 10° WSW 03:12:38 15° SW 03:16:54 10° SSW visible
11 Jun - 16:33:38 10° SSE 16:40:23 13° SE 16:47:18 10° ESE daylight
11 Jun - 18:35:20 10° SSW 18:50:17 36° SSE 19:04:18 10° E daylight
11 Jun - 20:44:26 10° WSW 21:01:37 56° SSE 21:15:01 10° E daylight
11 Jun - 22:56:40 10° W 23:12:55 58° S 23:23:46 10° ESE daylight
12 Jun - 01:10:16 10° W 01:22:31 37° SSW 01:30:32 10° SSE visible
12 Jun - 16:47:27 10° S 16:57:39 19° SE 17:08:16 10° E daylight
12 Jun - 18:52:08 10° SW 19:07:54 43° SSE 19:22:34 10° E daylight
12 Jun - 21:02:07 10° WSW 21:19:29 59° S 21:32:52 10° E daylight
12 Jun - 23:14:41 10° W 23:30:41 55° SSW 23:41:22 10° ESE daylight
13 Jun - 01:28:39 10° W 01:39:51 30° SW 01:47:30 10° SSE visible
13 Jun - 17:02:50 10° S 17:14:57 26° SE 17:27:45 10° E daylight
13 Jun - 19:09:15 10° SW 19:25:35 49° SSE 19:40:40 10° E daylight
13 Jun - 21:19:54 10° WSW 21:37:23 61° S 21:50:41 10° ESE daylight
13 Jun - 23:32:47 10° W 23:48:23 51° SSW 23:58:51 10° SE daylight
14 Jun - 01:47:19 10° W 01:57:04 24° SW 02:04:07 10° S visible
14 Jun - 17:18:57 10° SSW 17:32:19 32° SE 17:46:35 10° E daylight
14 Jun - 19:26:36 10° SW 19:43:21 54° SSE 19:58:41 10° E daylight
14 Jun - 21:37:48 10° WSW 21:55:16 62° S 22:08:27 10° ESE daylight
14 Jun - 23:50:56 10° W 00:05:58 45° SSW 00:16:12 10° SE daylight
15 Jun - 02:06:29 10° W 02:14:10 18° SW 02:20:09 10° S visible
15 Jun - 15:33:27 10° SSE 15:40:23 14° SE 15:47:55 10° ESE daylight
15 Jun - 17:35:33 10° SSW 17:49:45 39° SSE 18:05:03 10° E daylight
15 Jun - 19:44:09 10° WSW 20:01:11 59° SSE 20:16:37 10° E daylight
15 Jun - 21:55:46 10° W 22:13:07 60° S 22:26:08 10° ESE daylight
